Regional Weather Roundup
Issued by NWS Wilmington, NC

Home | Current Version | Previous Version | Text Only | Print | Product List | Glossary On
Versions: 1 2 3 4 5 6 7 8 9 10 11 12 13 14 15 16 17 18 19 20 21 22 23 24 25 26 27 28 29 30 31 32 33 34 35 36 37 38 39 40 41 42 43 44 45 46 47 48 49 50
000
ASUS42 KILM 041810
RWRILM
RWRILM
REGIONAL HOURLY WEATHER ROUNDUP
NATIONAL WEATHER SERVICE WILMINGTON NC
100 PM EST WED MAR 04 2015

NOTE: "FAIR" INDICATES FEW OR NO CLOUDS BELOW 12,000 FEET WITH NO
SIGNIFICANT WEATHER AND/OR OBSTRUCTIONS TO VISIBILITY.

...............WFO WILMINGTON COUNTY WARNING AREA...............

......COASTAL NC AND SC COUNTIES......

CITY           SKY/WX    TMP DP  RH WIND       PRES   REMARKS
WILMINGTON     SUNNY     74  65  73 S15G30    30.02F
SOUTHPORT      FOG       60  59  95 SW13G20   30.06F VSB 1
N MYRTLE BEACH MOSUNNY   65  60  84 SW20G28   30.04F
MYRTLE BEACH   PTSUNNY   73  63  68 S16       30.07F

......INLAND NC AND SC COUNTIES.......

CITY           SKY/WX    TMP DP  RH WIND       PRES   REMARKS
LUMBERTON      PTSUNNY   77  63  61 SW20      29.98F
ELIZABETHTOWN  PTSUNNY   77  63  61 SW12G22   30.00F
WHITEVILLE     MOSUNNY   76  65  69 SW13G25   30.01F
FLORENCE       PTSUNNY   77  61  57 W18G28    29.99F
DARLINGTON     PTSUNNY   73  63  68 SW21G30   30.00F

....................REST OF NORTH CAROLINA......................

.........EASTERN NC.........

CITY           SKY/WX    TMP DP  RH WIND       PRES   REMARKS
CAPE HATTERAS  FOG       56  56 100 W13G21    30.03F VSB 1/4
JACKSONVILLE   CLOUDY    77  64  65 S22G29    29.99F
MOREHEAD CITY  FOG       60  60 100 SW20G29   30.04F VSB 1/4
KENANSVILLE    CLOUDY    76  62  61 SW10G22   29.98F
NEW BERN       CLOUDY    81  63  54 SW18G24   29.98F
ELIZABETH CITY PTSUNNY   67  61  81 SW18G24   29.95F

.........CENTRAL NC.........

CITY           SKY/WX    TMP DP  RH WIND       PRES   REMARKS
RALEIGH DURHAM PTSUNNY   63  57  81 SW18G25   29.96F
ROCKY MOUNT    CLOUDY    60  57  89 SW13      29.97F
ROANOKE RAPIDS NOT AVBL
FAYETTEVILLE   PTSUNNY   75  61  61 SW15G25   29.98F
HOFFMAN        MOSUNNY   72  63  74 SW15G23   30.00F

.........WESTERN NC.........

CITY           SKY/WX    TMP DP  RH WIND       PRES   REMARKS
CHARLOTTE      PTSUNNY   63  54  72 SW16G28   29.97F
GREENSBORO     MOSUNNY   70  57  63 SW20G38   29.88F
HICKORY        NOT AVBL
BOONE          NOT AVBL
ASHEVILLE      NOT AVBL

.....................REST OF SOUTH CAROLINA.....................

.........EASTERN SC.........

CITY           SKY/WX    TMP DP  RH WIND       PRES   REMARKS
CHARLESTON     MOSUNNY   80  63  55 S18G25    30.07F
BEAUFORT MCAS  MOSUNNY   81  67  62 S12G23    30.05F
HILTON HEAD    SUNNY     73  64  73 S12G18    30.09F

.........CENTRAL SC.........

CITY           SKY/WX    TMP DP  RH WIND       PRES   REMARKS
COLUMBIA       MOSUNNY   79  60  52 SW21G36   30.00F
ORANGEBURG     MOSUNNY   78  59  51 SW22G30   30.03F
SUMTER SHAW    MOSUNNY   78  61  54 SW23G30   29.99F

.........WESTERN SC.........

CITY           SKY/WX    TMP DP  RH WIND       PRES   REMARKS
GREENVILLE     NOT AVBL
ROCK HILL      CLOUDY    60  55  83 SW16G26   29.99S
ANDERSON       CLOUDY    60  57  89 SW12      30.02S
CLEMSON        NOT AVBL
GREENWOOD      CLOUDY    62  58  86 SW16G23   30.03F


...................COASTAL AND OFFSHORE REPORTS..................

................LOCAL PIERS AND NC RESERVE................


STATION/POSITION TIME  SKY/WX   TEMP    WIND        PRES    VSBY
                                AIR SEA DIR/SP/G
                 (UTC)          (F)     (DEG/KT/KT) (MB)    (MI)
JOHNY MRCER PIER 1800            70 50  220/ 21/ 27 1016.4F
NC RESRV MASNBRO 1700            72     220/  8     1017.0S
OCEAN CREST PIER 1800            55 47  210/  8/  9 1017.2F
SPRINGMAID  PIER 1800            53 46  200/ 11/ 12 1017.6F


................COASTAL AND OFFSHORE BUOYS................


STATION/POSITION TIME  SKY/WX   TEMP    WIND        PRES    VSBY
                                AIR SEA DIR/SP/G
                 (UTC)          (F)     (DEG/KT/KT) (MB)    (MI)
DIMNDSHOAL 41025 NOT AVBL
CAPE LOOKOUT     1700            60     230/ 10/ 13 1017.9F
ONSLOW BAY 41036 NOT AVBL
5 WRITEBCH 41038 NOT AVBL
MASONBORO  41110 1800               46                N/A
WVE H/P(F/S)=  4/ 7 WND WVE H/P(F/S)=  3/ 7

WILM HARBR 41108 1800               48                N/A
WVE H/P(F/S)=  4/ 7 WND WVE H/P(F/S)=  3/ 7

27WRITEBCH 41037 NOT AVBL
FRYING PAN 41013 1800            67 62  210/ 14/ 17 1018.8F
WVE H/P(F/S)=  5/ 6 WND WVE H/P(F/S)=  5/ 6 SWL H/P/D(F/S/D)=  3/120/ 7

SUNST NRSH 41024 1700            54     220/ 16/ 19   N/A
CAPRS NRSH 41029 1700            53     240/ 10/ 12   N/A
EDISTO     41004 1800            69 69  220/ 17/ 21 1018.4F
WVE H/P(F/S)=  5/ 8 WND WVE H/P(F/S)=  3/ 6 SWL H/P/D(F/S/D)=  3/ 8



..........OFFSHORE BUOYS BEYOND 100 NM OFFSHORE...........
.....IN A TRIANGLE---HAT TO BERMUDA TO BAHAMAS TO HAT.....


STATION/POSITION TIME  SKY/WX   TEMP    WIND        PRES    VSBY
                                AIR SEA DIR/SP/G
                 (UTC)          (F)     (DEG/KT/KT) (MB)    (MI)
150E HAT   41001 NOT AVBL
W BERMUDA  41048 1659            69 69  190/ 14/ 16 1024.2F
WVE H/P(F/S)=  5/11 WND WVE H/P(F/S)=  2/ 3 SWL H/P/D(F/S/D)=  5/ 60/11

ATLANTIC S 41049 1651            73 74   80/ 12/ 14 1024.1
WVE H/P(F/S)=  7/11 WND WVE H/P(F/S)=  3/ 5 SWL H/P/D(F/S/D)=  7/ 30/11

E BAHAMAS  41046 1654            76 77  100/ 16/ 19 1022.0
WVE H/P(F/S)=  7/11 WND WVE H/P(F/S)=  5/ 6 SWL H/P/D(F/S/D)=  5/ 80/11

NE BAHAMAS 41047 1737            74 74  120/ 10/ 12 1023.9F
WVE H/P(F/S)=  7/10 WND WVE H/P(F/S)=  2/ 4 SWL H/P/D(F/S/D)=  7/ 60/10

120E CANVRL41010 1800            74 75  170/ 14/ 17 1021.8F
WVE H/P(F/S)=  5/10 WND WVE H/P(F/S)=  3/ 6 SWL H/P/D(F/S/D)=  3/100/10


END


USA.gov is the U.S. government's official web portal to all federal, state and local government web resources and services.